(°C)
17°
18°
19°
20°
21°
22°
23°
(°C)
18°
19°
20°
21°
22°
22°
23°
V
NNV
V
VNV
V
VSV
V
(km/h)
5-7
4-6
4-8
5-11
5-11
6-12
10-22
(mm)
0
3
0
0
0
0
1.3
(%)
6
26
6
23
33
45
71

Elevația soarelui

/ 20.4°
sun-icon
UV 5
05:43
20:58
Al doilea pătrar (211°)
22:45
08:07

METAR pentru Innsbruck (LOWI)

Ora Condiții Temperatură/
Punctul de rouă
Vânt Vizibilitate Vremea Nori Presiune Schimbă Brut
VFR 17°C / 15°C 100º variable 060º to 130º 5kt >10km Light Showers Rain 3.00mm precipitation Vertical Visibility of 0ft. 1015 Temporary: Showers Rain . Broken Clouds 6000ft. Few Clouds 6000ft. Cumulonimbus LOWI 260520Z 10005KT 060V130 9999 -SHRA FEW020 SCT060 FEW060TCU BKN100 17/15 Q1015 TEMPO SHRA BKN060 FEW060CB
VFR 17°C / 14°C 80º 3kt >10km - Few Clouds 2000ft 1015 Temporary: Showers Rain . Broken Clouds 6000ft. Few Clouds 6000ft. Cumulonimbus LOWI 260450Z 08003KT 9999 FEW020 SCT060 FEW060TCU BKN100 17/14 Q1015 TEMPO SHRA BKN060 FEW060CB
VFR 17°C / 15°C 90º variable 030º to 130º 3kt >10km Light Showers Rain 3.00mm precipitation Vertical Visibility of 0ft. 1015 Temporary: Showers Rain . Broken Clouds 6000ft. Few Clouds 6000ft. Cumulonimbus LOWI 260420Z 09003KT 030V130 9999 -SHRA FEW015 SCT030 FEW060TCU BKN100 17/15 Q1015 TEMPO SHRA BKN060 FEW060CB
VFR 16°C / 15°C 10º variable 270º to 070º 3kt >10km Light Showers Rain 3.00mm precipitation Vertical Visibility of 0ft. 1015 Temporary: Showers Rain . Broken Clouds 6000ft. Few Clouds 6000ft. Cumulonimbus LOWI 260350Z 01003KT 270V070 9999 -SHRA FEW015 SCT030 BKN100 16/15 Q1015 TEMPO SHRA BKN060 FEW060CB
VFR 16°C / 14°C 180º variable 080º to 220º 3kt >10km - Few Clouds 10000ft 1015 - LOWI 260320Z AUTO 18003KT 080V220 9999 FEW100 SCT110 16/14 Q1015
VFR 17°C / 15°C variable 2kt >10km - Few Clouds 2000ft 1015 - LOWI 260250Z AUTO VRB02KT 9999 FEW020 BKN100 17/15 Q1015
VFR 17°C / 15°C 190º variable 170º to 240º 3kt >10km - Few Clouds 3400ft 1015 - LOWI 260220Z AUTO 19003KT 170V240 9999 FEW034 BKN110 17/15 Q1015
VFR 17°C / 15°C variable 1kt >10km - Few Clouds 3000ft 1015 - LOWI 260150Z AUTO VRB01KT 9999 FEW030 SCT034 17/15 Q1015
MVFR 17°C / 15°C 310º 5kt >10km - Few Clouds 2800ft 1015 - LOWI 260120Z AUTO 31005KT 9999 FEW028 BKN030 17/15 Q1015
MVFR 17°C / 15°C 260º 6kt >10km - Few Clouds 2600ft 1015 - LOWI 260050Z AUTO 26006KT 9999 FEW026 BKN030 17/15 Q1015
MVFR 17°C / 15°C 200º variable 160º to 220º 3kt >10km - Few Clouds 2800ft 1015 - LOWI 260020Z AUTO 20003KT 160V220 9999 FEW028 BKN030 17/15 Q1015
MVFR 17°C / 15°C variable 2kt >10km - Few Clouds 2400ft 1015 - LOWI 252350Z AUTO VRB02KT 9999 FEW024 BKN028 17/15 Q1015
MVFR 17°C / 15°C variable 1kt >10km - Few Clouds 2400ft 1015 - LOWI 252320Z AUTO VRB01KT 9999 FEW024 BKN026 17/15 Q1015
MVFR 16°C / 15°C variable 1kt >10km - Few Clouds 2400ft 1015 - LOWI 252250Z AUTO VRB01KT 9999 FEW024 BKN026 16/15 Q1015
VFR 16°C / 15°C variable 2kt >10km - Few Clouds 2400ft 1015 - LOWI 252220Z AUTO VRB02KT 9999 FEW024 16/15 Q1015
VFR 16°C / 15°C 220º variable 190º to 270º 3kt >10km - Few Clouds 3000ft 1015 - LOWI 252150Z AUTO 22003KT 190V270 9999 FEW030 16/15 Q1015
VFR 16°C / 15°C 280º 3kt >10km - Clear 1014 - LOWI 252120Z AUTO 28003KT 9999 NCD 16/15 Q1014
VFR 17°C / 15°C 100º 2kt >10km - Few Clouds 5000ft 1014 No Significant change LOWI 252050Z 10002KT 9999 FEW050 17/15 Q1014 NOSIG
VFR 17°C / 15°C variable 2kt >10km - Few Clouds 5000ft 1014 No Significant change LOWI 252020Z VRB02KT 9999 FEW050 17/15 Q1014 NOSIG
VFR 18°C / 16°C variable 2kt >10km - Few Clouds 5000ft 1013 No Significant change LOWI 251950Z VRB02KT 9999 FEW050 18/16 Q1013 NOSIG
VFR 18°C / 16°C variable 2kt >10km - Few Clouds 5000ft 1013 No Significant change LOWI 251920Z VRB02KT 9999 FEW050 18/16 Q1013 NOSIG
VFR 19°C / 16°C variable 3kt >10km - Few Clouds 5000ft 1013 No Significant change LOWI 251850Z VRB03KT 9999 FEW050 19/16 Q1013 NOSIG
VFR 21°C / 17°C variable 1kt >10km - Few Clouds 5000ft 1013 No Significant change LOWI 251820Z VRB01KT 9999 FEW050 SCT120 21/17 Q1013 NOSIG
VFR 21°C / 17°C 140º variable 050º to 190º 3kt >10km - Few Clouds 5000ft 1012 No Significant change LOWI 251750Z 14003KT 050V190 9999 FEW050 BKN120 21/17 Q1012 NOSIG

VFR

17°C / 15°C

[Mai mult]
Vânt 100º variable 060º to 130º 5kt
Vizibilitate >10km
Vremea Light Showers Rain 3.00mm precipitation
Nori Vertical Visibility of 0ft.
Presiune 1015
Schimbă Temporary: Showers Rain . Broken Clouds 6000ft. Few Clouds 6000ft. Cumulonimbus
Brut LOWI 260520Z 10005KT 060V130 9999 -SHRA FEW020 SCT060 FEW060TCU BKN100 17/15 Q1015 TEMPO SHRA BKN060 FEW060CB

VFR

17°C / 14°C

[Mai mult]
Vânt 80º 3kt
Vizibilitate >10km
Vremea -
Nori Few Clouds 2000ft
Presiune 1015
Schimbă Temporary: Showers Rain . Broken Clouds 6000ft. Few Clouds 6000ft. Cumulonimbus
Brut LOWI 260450Z 08003KT 9999 FEW020 SCT060 FEW060TCU BKN100 17/14 Q1015 TEMPO SHRA BKN060 FEW060CB

VFR

17°C / 15°C

[Mai mult]
Vânt 90º variable 030º to 130º 3kt
Vizibilitate >10km
Vremea Light Showers Rain 3.00mm precipitation
Nori Vertical Visibility of 0ft.
Presiune 1015
Schimbă Temporary: Showers Rain . Broken Clouds 6000ft. Few Clouds 6000ft. Cumulonimbus
Brut LOWI 260420Z 09003KT 030V130 9999 -SHRA FEW015 SCT030 FEW060TCU BKN100 17/15 Q1015 TEMPO SHRA BKN060 FEW060CB

VFR

16°C / 15°C

[Mai mult]
Vânt 10º variable 270º to 070º 3kt
Vizibilitate >10km
Vremea Light Showers Rain 3.00mm precipitation
Nori Vertical Visibility of 0ft.
Presiune 1015
Schimbă Temporary: Showers Rain . Broken Clouds 6000ft. Few Clouds 6000ft. Cumulonimbus
Brut LOWI 260350Z 01003KT 270V070 9999 -SHRA FEW015 SCT030 BKN100 16/15 Q1015 TEMPO SHRA BKN060 FEW060CB

VFR

16°C / 14°C

[Mai mult]
Vânt 180º variable 080º to 220º 3kt
Vizibilitate >10km
Vremea -
Nori Few Clouds 10000ft
Presiune 1015
Schimbă -
Brut LOWI 260320Z AUTO 18003KT 080V220 9999 FEW100 SCT110 16/14 Q1015

VFR

17°C / 15°C

[Mai mult]
Vânt variable 2kt
Vizibilitate >10km
Vremea -
Nori Few Clouds 2000ft
Presiune 1015
Schimbă -
Brut LOWI 260250Z AUTO VRB02KT 9999 FEW020 BKN100 17/15 Q1015

VFR

17°C / 15°C

[Mai mult]
Vânt 190º variable 170º to 240º 3kt
Vizibilitate >10km
Vremea -
Nori Few Clouds 3400ft
Presiune 1015
Schimbă -
Brut LOWI 260220Z AUTO 19003KT 170V240 9999 FEW034 BKN110 17/15 Q1015

VFR

17°C / 15°C

[Mai mult]
Vânt variable 1kt
Vizibilitate >10km
Vremea -
Nori Few Clouds 3000ft
Presiune 1015
Schimbă -
Brut LOWI 260150Z AUTO VRB01KT 9999 FEW030 SCT034 17/15 Q1015

MVFR

17°C / 15°C

[Mai mult]
Vânt 310º 5kt
Vizibilitate >10km
Vremea -
Nori Few Clouds 2800ft
Presiune 1015
Schimbă -
Brut LOWI 260120Z AUTO 31005KT 9999 FEW028 BKN030 17/15 Q1015

MVFR

17°C / 15°C

[Mai mult]
Vânt 260º 6kt
Vizibilitate >10km
Vremea -
Nori Few Clouds 2600ft
Presiune 1015
Schimbă -
Brut LOWI 260050Z AUTO 26006KT 9999 FEW026 BKN030 17/15 Q1015

MVFR

17°C / 15°C

[Mai mult]
Vânt 200º variable 160º to 220º 3kt
Vizibilitate >10km
Vremea -
Nori Few Clouds 2800ft
Presiune 1015
Schimbă -
Brut LOWI 260020Z AUTO 20003KT 160V220 9999 FEW028 BKN030 17/15 Q1015

MVFR

17°C / 15°C

[Mai mult]
Vânt variable 2kt
Vizibilitate >10km
Vremea -
Nori Few Clouds 2400ft
Presiune 1015
Schimbă -
Brut LOWI 252350Z AUTO VRB02KT 9999 FEW024 BKN028 17/15 Q1015

MVFR

17°C / 15°C

[Mai mult]
Vânt variable 1kt
Vizibilitate >10km
Vremea -
Nori Few Clouds 2400ft
Presiune 1015
Schimbă -
Brut LOWI 252320Z AUTO VRB01KT 9999 FEW024 BKN026 17/15 Q1015

MVFR

16°C / 15°C

[Mai mult]
Vânt variable 1kt
Vizibilitate >10km
Vremea -
Nori Few Clouds 2400ft
Presiune 1015
Schimbă -
Brut LOWI 252250Z AUTO VRB01KT 9999 FEW024 BKN026 16/15 Q1015

VFR

16°C / 15°C

[Mai mult]
Vânt variable 2kt
Vizibilitate >10km
Vremea -
Nori Few Clouds 2400ft
Presiune 1015
Schimbă -
Brut LOWI 252220Z AUTO VRB02KT 9999 FEW024 16/15 Q1015

VFR

16°C / 15°C

[Mai mult]
Vânt 220º variable 190º to 270º 3kt
Vizibilitate >10km
Vremea -
Nori Few Clouds 3000ft
Presiune 1015
Schimbă -
Brut LOWI 252150Z AUTO 22003KT 190V270 9999 FEW030 16/15 Q1015

VFR

16°C / 15°C

[Mai mult]
Vânt 280º 3kt
Vizibilitate >10km
Vremea -
Nori Clear
Presiune 1014
Schimbă -
Brut LOWI 252120Z AUTO 28003KT 9999 NCD 16/15 Q1014

VFR

17°C / 15°C

[Mai mult]
Vânt 100º 2kt
Vizibilitate >10km
Vremea -
Nori Few Clouds 5000ft
Presiune 1014
Schimbă No Significant change
Brut LOWI 252050Z 10002KT 9999 FEW050 17/15 Q1014 NOSIG

VFR

17°C / 15°C

[Mai mult]
Vânt variable 2kt
Vizibilitate >10km
Vremea -
Nori Few Clouds 5000ft
Presiune 1014
Schimbă No Significant change
Brut LOWI 252020Z VRB02KT 9999 FEW050 17/15 Q1014 NOSIG

VFR

18°C / 16°C

[Mai mult]
Vânt variable 2kt
Vizibilitate >10km
Vremea -
Nori Few Clouds 5000ft
Presiune 1013
Schimbă No Significant change
Brut LOWI 251950Z VRB02KT 9999 FEW050 18/16 Q1013 NOSIG

VFR

18°C / 16°C

[Mai mult]
Vânt variable 2kt
Vizibilitate >10km
Vremea -
Nori Few Clouds 5000ft
Presiune 1013
Schimbă No Significant change
Brut LOWI 251920Z VRB02KT 9999 FEW050 18/16 Q1013 NOSIG

VFR

19°C / 16°C

[Mai mult]
Vânt variable 3kt
Vizibilitate >10km
Vremea -
Nori Few Clouds 5000ft
Presiune 1013
Schimbă No Significant change
Brut LOWI 251850Z VRB03KT 9999 FEW050 19/16 Q1013 NOSIG

VFR

21°C / 17°C

[Mai mult]
Vânt variable 1kt
Vizibilitate >10km
Vremea -
Nori Few Clouds 5000ft
Presiune 1013
Schimbă No Significant change
Brut LOWI 251820Z VRB01KT 9999 FEW050 SCT120 21/17 Q1013 NOSIG

VFR

21°C / 17°C

[Mai mult]
Vânt 140º variable 050º to 190º 3kt
Vizibilitate >10km
Vremea -
Nori Few Clouds 5000ft
Presiune 1012
Schimbă No Significant change
Brut LOWI 251750Z 14003KT 050V190 9999 FEW050 BKN120 21/17 Q1012 NOSIG

TAF pentru Innsbruck (LOWI)

From till


Maximum Temperature 24ºC on . Minimum Temperature 15ºC on .
From till Wind variable 5kt. Visibility 10km or more. Few Clouds 2000ft. Scattered Clouds 6000ft. Broken Clouds 9000ft.
Temporarly from till Showers Rain . Scattered Clouds 5000ft. Few Clouds 5000ft.
Becoming from till Wind 90º 8kt. Visibility 10km or more. Scattered Clouds 6000ft. Few Clouds 6000ft.
With 40% probability, Temporarly from till Wind 270º 15kt. Gust 30kt. Thunderstorm Rain .
Temporarly from till Wind variable 15kt. Thunderstorm Rain . Broken Clouds 5000ft.

Brut: TAF LOWI 260515Z 2606/2706 VRB05KT 9999 FEW020 SCT060 BKN090 TX24/2613Z TN15/2702Z TEMPO 2606/2608 SHRA SCT050 FEW050CB BECMG 2610/2612 09008KT SCT060 FEW060CB PROB40 TEMPO 2612/2616 27015G30KT TSRA TEMPO 2616/2624 VRB15KT TSRA BKN050CB

Imagini satelitare și ploaie pentru Innsbruck, Austria

Markerul cu locaţia este poziţionat pe Innsbruck. [Mai mult]

Imaginea satelitară în timp real combină lumina vizibilă din timpul zilei cu radiația cu infraroșu din timpul nopții. Pe timp de noapte, imaginea nu este întunecată, deoarece radiația cu infraroșu poate detecta diferențele de temperatură. Din păcate, norii joși și ceața sunt greu de recunoscut față de temperatura de la sol, din această cauză putând fi invizibili pe timp de noapte. Imaginile satelitare Meteosat pentru Europa sunt actualizate în timp real din 5 în 5 minute. Imaginile GOES-16/GOES-17 (America de Nord și de Sud) și Himawari (Asia) sunt actualizate din 10 în 10 minute.

Cantitatea de precipitaţii este estimată cu ajutorul radarelor şi a sateliţilor. Estimările satelitare privind cantitatea de precipitaţii sunt mai puţin exacte noaptea decât în timpul zilei. Crucile portocalii marchează locurile unde fulger a fost detectat (over Europa).

Toate drepturile rezervate 2021 EUMETSAT / meteoblue. Datele despre fulgere furnizate de către nowcast.

Radar pentru Innsbruck

Burniță
Ușoară
Moderat
Greu
Foarte greu
Grindină

Markerul de locație este plasat în Innsbruck. Această animație arată radarul de precipitații pentru ultima oră, precum și o 2h prognoză. Bruma și fulguiala pot fi invizibile pe radar. Intensitatea precipitațiilor este reprezentată prin culori, de la albastru deschis la violet închis.
Copyright 2021 Deutscher Wetterdienst / meteoblue.

Situația meteo actuală și avertismente

EUMETNET – MeteoAlarm

pictomap

Sursa: ZAMG

Este posibil să existe o întârziere între acest site și site-ul www.meteoalarm.eu, pentru cele mai recente informații referitoare la alertele publicate de serviciile meteorologice naționale te rugăm să consulți www.meteoalarm.eu.